Location: Hohe Wand Kleine Kanzel
(47.8330°N, 16.0170°E)
Time: 12:55:15
(UTC+02:00)

Transit 2A Rocket - All Passes

Search period start: 03 August 2021 00:00
Search period end: 13 August 2021 00:00
Orbit: 589 x 913 km, 66.7° (Epoch: 02 August)

Date Brightness Start Highest point End Pass type
(mag) Time Alt. Az. Time Alt. Az. Time Alt. Az.
03 Aug - 14:27:27 10° SSW 14:31:51 62° ESE 14:36:38 10° NE daylight
03 Aug - 16:11:01 10° W 16:14:51 25° NW 16:18:58 10° NNE daylight
03 Aug - 17:58:39 10° NNW 17:59:21 10° NNW 18:00:03 10° N daylight
03 Aug - 19:43:06 10° N 19:44:30 11° NNE 19:45:54 10° NNE daylight
03 Aug - 21:24:23 10° NNW 21:28:57 27° NE 21:33:48 10° E visible
03 Aug - 23:06:33 10° NW 23:12:05 77° WSW 23:18:01 10° SSE visible
04 Aug - 00:51:01 10° WNW 00:53:57 14° WSW 00:56:56 10° SW visible
04 Aug - 13:45:20 10° S 13:49:23 35° ESE 13:53:44 10° NE daylight
04 Aug - 15:27:41 10° WSW 15:31:54 36° NW 15:36:30 10° NNE daylight
04 Aug - 17:14:03 10° NW 17:16:03 12° NNW 17:18:08 10° N daylight
04 Aug - 20:41:59 10° NNW 20:45:55 20° NNE 20:50:03 10° E daylight
04 Aug - 22:23:54 10° NNW 22:29:24 71° NE 22:35:20 10° SE visible
05 Aug - 00:07:15 10° WNW 00:11:38 23° WSW 00:16:12 10° SSW visible
05 Aug - 13:03:44 10° SSE 13:07:02 20° ESE 13:10:31 10° ENE daylight
05 Aug - 14:44:38 10° SW 14:49:05 57° NW 14:53:58 10° NNE daylight
05 Aug - 16:29:58 10° WNW 16:32:50 16° NNW 16:35:51 10° N daylight
05 Aug - 19:59:37 10° N 20:02:47 15° NNE 20:06:03 10° ENE daylight
05 Aug - 21:41:21 10° NNW 21:46:39 48° NE 21:52:20 10° ESE visible
05 Aug - 23:24:06 10° NW 23:29:12 37° WSW 23:34:37 10° S visible
06 Aug - 12:23:20 10° ESE 12:24:48 11° ESE 12:26:19 10° E daylight
06 Aug - 14:01:54 10° SSW 14:06:24 87° ESE 14:11:20 10° NE daylight
06 Aug - 15:46:11 10° W 15:49:43 21° NNW 15:53:29 10° NNE daylight
06 Aug - 19:17:20 10° N 19:19:33 12° NNE 19:21:50 10° NE daylight
06 Aug - 20:58:52 10° NNW 21:03:48 33° NE 21:09:03 10° ESE visible
06 Aug - 22:41:13 10° NW 22:46:42 58° WSW 22:52:32 10° SSE visible
07 Aug - 13:19:31 10° SSW 13:23:51 50° ESE 13:28:34 10° NE daylight
07 Aug - 15:02:40 10° W 15:06:42 29° NW 15:11:03 10° NNE daylight
07 Aug - 16:49:41 10° NNW 16:51:05 11° NNW 16:52:31 10° N daylight
07 Aug - 18:35:12 10° N 18:36:14 10° NNE 18:37:17 10° NNE daylight
07 Aug - 20:16:25 10° NNW 20:20:49 24° NE 20:25:29 10° E daylight
07 Aug - 21:58:30 10° NW 22:04:05 89° WSW 22:10:04 10° SSE visible
07 Aug - 23:42:28 10° WNW 23:46:05 17° WSW 23:49:49 10° SW visible
08 Aug - 12:37:34 10° S 12:41:26 29° ESE 12:45:35 10° NE daylight
08 Aug - 14:19:26 10° WSW 14:23:48 43° NW 14:28:34 10° NNE daylight
08 Aug - 16:05:24 10° NW 16:07:49 13° NNW 16:10:20 10° N daylight
08 Aug - 19:34:01 10° NNW 19:37:45 18° NNE 19:41:38 10° ENE daylight
08 Aug - 21:15:54 10° NNW 21:21:23 62° NE 21:27:17 10° SE visible
08 Aug - 22:58:59 10° NW 23:03:44 28° WSW 23:08:40 10° SSW visible
09 Aug - 11:56:14 10° SSE 11:59:08 17° ESE 12:02:10 10° ENE daylight
09 Aug - 13:36:30 10° SW 13:41:01 69° NW 13:45:59 10° NNE daylight
09 Aug - 15:21:27 10° WNW 15:24:38 17° NNW 15:28:00 10° NNE daylight
09 Aug - 18:51:40 10° N 18:54:34 14° NNE 18:57:35 10° NE daylight
09 Aug - 20:33:22 10° NNW 20:38:35 42° NE 20:44:10 10° ESE daylight
09 Aug - 22:15:58 10° NW 22:21:16 44° WSW 22:26:54 10° S visible
10 Aug - 12:53:54 10° SSW 12:58:23 72° ESE 13:03:19 10° NE daylight
10 Aug - 14:37:46 10° W 14:41:32 23° NW 14:45:36 10° NNE daylight
10 Aug - 16:25:32 10° NNW 16:26:09 10° N 16:26:47 10° N daylight
10 Aug - 18:09:22 10° N 18:11:18 12° NNE 18:13:17 10° NE daylight
10 Aug - 19:50:53 10° NNW 19:55:41 30° NE 20:00:47 10° E daylight
10 Aug - 21:33:08 10° NW 21:38:43 68° WSW 21:44:39 10° SSE visible
10 Aug - 23:18:12 10° W 23:20:29 12° WSW 23:22:47 10° SW visible
11 Aug - 12:11:39 10° S 12:15:53 41° ESE 12:20:29 10° NE daylight
11 Aug - 13:54:21 10° WSW 13:58:33 33° NW 14:03:09 10° NNE daylight
11 Aug - 15:40:56 10° NW 15:42:50 12° NNW 15:44:47 10° N daylight
11 Aug - 17:27:19 10° N 17:27:59 10° N 17:28:37 10° NNE daylight
11 Aug - 19:08:27 10° NNW 19:12:41 22° NE 19:17:07 10° E daylight
11 Aug - 20:50:28 10° NNW 20:56:05 80° NE 21:02:05 10° SE visible
11 Aug - 22:34:03 10° WNW 22:38:12 21° WSW 22:42:29 10° SSW visible
12 Aug - 11:29:52 10° SSE 11:33:30 24° ESE 11:37:23 10° ENE daylight
12 Aug - 13:11:14 10° SW 13:15:42 50° NW 13:20:37 10° NNE daylight
12 Aug - 14:56:49 10° WNW 14:59:35 15° NNW 15:02:29 10° N daylight
12 Aug - 18:26:04 10° NNW 18:29:33 17° NNE 18:33:12 10° ENE daylight
12 Aug - 20:07:53 10° NNW 20:13:21 54° NE 20:19:10 10° SE daylight
12 Aug - 21:50:47 10° NW 21:55:48 33° WSW 22:01:04 10° S visible
